Погода в Жарковском

Россия / Тверская область     55°50′53″N   32°15′56″E
темп.,
°C
ветер,
м/с
пор.,
м/с
влажн.,
%
обл.,
%
осадки,
мм/ч
давл.,
гПа
погр.,
м
11 мая, вт
вт1100:00+7ююв227610 0.0 102728
03:00+6юв227758 0.0 102821
06:00+6в227737 0.0 102844
09:00+12в2451100 0.0 1028482
12:00+17в353442 0.0 10261057
15:00+19в35305 0.0 10251288
18:00+18в35445 0.0 10241038
21:00+11в37745 0.0 1025140
12 мая, ср
ср1200:00+9в210865 0.0 1025197
03:00+9вюв29970 0.0 1025197
06:00+9юв289677 0.0 1026300
09:00+14юв35610 0.0 1026799
12:00+17вюв46426 0.0 10241395
15:00+18вюв354158 0.0 10211427
18:00+16ссв3865100 0.0 1017357
21:00+14в71493100 3.3 10141136
13 мая, чт
чт1300:00+8вюв61391100 0.5 10161020
03:00+7вюв5129268 0.5 1016647
06:00+8вюв61289100 0.1 1015951
09:00+10юв61274100 0.1 10151289
12:00+12юв586479 0.1 10151412
15:00+13юв486084 0.1 10151441
18:00+14ююв48574 0.0 10141269
21:00+9юв2283100 0.0 101413
14 мая, пт
пт1400:00+9вюв2685100 0.0 1014121
03:00+7юв27951 0.0 1014130
06:00+8юв389247 0.0 1014202
09:00+14юв4765100 0.0 1013552
12:00+18юв375451 0.0 10121420
15:00+17юв477239 1.1 1011978
18:00+18юв367693 1.0 1010705
21:00+14юв239557 2.8 100957
15 мая, сб
сб1500:00+12ю2697100 0.4 1009128
03:00+11ююз1197100 0.4 100911
06:00+11ю1197100 0.0 101033
09:00+16ююв01819 0.0 1009377
12:00+21ю1156100 0.0 10081285
15:00+21ю1157100 0.7 10061267
18:00+18ююв2380100 1.5 1006183
21:00+14ююз2294100 4.4 100646